• en France
  • Liste des pays
  • À 7 jours
  • Température de l'eau
  • Carte satellitaire
  • Carte météo
  • Widgets météo
  • user-avatar
    Se connecter

    Météo par heure à Selfoss

    Ce jour, 21 Mai, Lundi

    Heure Température Précipitation Vent Pression Humidité
    00:00 +2°C° 0,1 mm 6 m/s 749 mmHg 87%
    01:00 +1°C° 0,1 mm 5 m/s 750 mmHg 87%
    02:00 +1°C° 0,1 mm 5 m/s 750 mmHg 88%
    03:00 +1°C° 0,1 mm 5 m/s 751 mmHg 87%
    04:00 +2°C° 0,1 mm 5 m/s 752 mmHg 86%
    05:00 +3°C° 0 mm 4 m/s 752 mmHg 86%
    06:00 +2°C° 0,2 mm 5 m/s 753 mmHg 84%
    07:00 +3°C° 0,2 mm 5 m/s 754 mmHg 83%
    08:00 +3°C° 0,2 mm 5 m/s 755 mmHg 81%
    09:00 +3°C° 0,2 mm 6 m/s 755 mmHg 80%
    10:00 +4°C° 0,2 mm 6 m/s 756 mmHg 80%
    11:00 +4°C° 0,2 mm 6 m/s 757 mmHg 79%
    12:00 +4°C° 0,1 mm 6 m/s 757 mmHg 78%
    13:00 +4°C° 0,1 mm 6 m/s 758 mmHg 76%
    14:00 +4°C° 0,1 mm 6 m/s 759 mmHg 75%
    15:00 +5°C° 0 mm 5 m/s 759 mmHg 73%
    16:00 +5°C° 0 mm 5 m/s 760 mmHg 70%
    17:00 +6°C° 0 mm 4 m/s 760 mmHg 67%
    18:00 +5°C° 0,1 mm 4 m/s 760 mmHg 70%
    19:00 +5°C° 0,1 mm 4 m/s 761 mmHg 72%
    20:00 +5°C° 0,1 mm 4 m/s 761 mmHg 74%
    21:00 +4°C° 0,1 mm 4 m/s 761 mmHg 77%
    22:00 +4°C° 0,1 mm 4 m/s 762 mmHg 80%
    23:00 +2°C° 0,1 mm 5 m/s 762 mmHg 83%

    Demain, 22 Mai, Mardi

    Heure Température Précipitation Vent Pression Humidité
    00:00 +2°C° 0,2 mm 5 m/s 762 mmHg 84%
    01:00 +2°C° 0,2 mm 5 m/s 761 mmHg 84%
    02:00 +2°C° 0,2 mm 6 m/s 761 mmHg 85%
    03:00 +2°C° 0,2 mm 6 m/s 761 mmHg 85%
    04:00 +3°C° 0,2 mm 7 m/s 761 mmHg 85%
    05:00 +3°C° 0,2 mm 7 m/s 760 mmHg 86%
    06:00 +4°C° 0,3 mm 8 m/s 760 mmHg 85%
    07:00 +3°C° 0,3 mm 9 m/s 760 mmHg 84%
    08:00 +5°C° 0,3 mm 10 m/s 759 mmHg 83%
    09:00 +4°C° 0,6 mm 11 m/s 759 mmHg 83%
    10:00 +4°C° 0,6 mm 12 m/s 758 mmHg 84%
    11:00 +4°C° 0,6 mm 13 m/s 758 mmHg 85%
    12:00 +4°C° 0,9 mm 13 m/s 757 mmHg 84%
    13:00 +4°C° 0,9 mm 14 m/s 757 mmHg 84%
    14:00 +4°C° 0,9 mm 15 m/s 756 mmHg 84%
    15:00 +4°C° 1,3 mm 15 m/s 755 mmHg 85%
    16:00 +4°C° 1,3 mm 15 m/s 754 mmHg 86%
    17:00 +4°C° 1,3 mm 16 m/s 753 mmHg 87%
    18:00 +4°C° 1,9 mm 15 m/s 753 mmHg 88%
    19:00 +4°C° 1,9 mm 14 m/s 752 mmHg 89%
    20:00 +4°C° 1,9 mm 13 m/s 752 mmHg 90%
    21:00 +4°C° 0,4 mm 11 m/s 752 mmHg 90%
    22:00 +5°C° 0,4 mm 10 m/s 753 mmHg 89%
    23:00 +5°C° 0,4 mm 8 m/s 753 mmHg 89%

    Après-demain, 23 Mai, Mercredi

    Heure Température Précipitation Vent Pression Humidité
    00:00 +4°C° 0,2 mm 8 m/s 753 mmHg 87%
    01:00 +4°C° 0,2 mm 8 m/s 754 mmHg 86%
    02:00 +4°C° 0,2 mm 8 m/s 754 mmHg 84%
    03:00 +4°C° 0,2 mm 8 m/s 755 mmHg 84%
    04:00 +4°C° 0,2 mm 8 m/s 756 mmHg 83%
    05:00 +4°C° 0,2 mm 8 m/s 756 mmHg 82%
    06:00 +4°C° 0,2 mm 8 m/s 757 mmHg 80%
    07:00 +5°C° 0,2 mm 8 m/s 758 mmHg 77%
    08:00 +5°C° 0,2 mm 8 m/s 758 mmHg 75%
    09:00 +5°C° 0,1 mm 8 m/s 759 mmHg 72%
    10:00 +6°C° 0,1 mm 8 m/s 759 mmHg 70%
    11:00 +6°C° 0,1 mm 7 m/s 760 mmHg 67%
    12:00 +6°C° 0 mm 7 m/s 760 mmHg 67%
    13:00 +8°C° 0 mm 6 m/s 760 mmHg 66%
    14:00 +8°C° 0 mm 6 m/s 760 mmHg 66%
    15:00 +8°C° 0 mm 5 m/s 760 mmHg 66%
    16:00 +7°C° 0 mm 5 m/s 760 mmHg 67%
    17:00 +7°C° 0 mm 4 m/s 760 mmHg 68%
    18:00 +8°C° 0,1 mm 3 m/s 760 mmHg 71%
    19:00 +7°C° 0,1 mm 3 m/s 760 mmHg 73%
    20:00 +7°C° 0,1 mm 2 m/s 760 mmHg 76%
    21:00 +7°C° 0,3 mm 2 m/s 759 mmHg 78%
    22:00 +6°C° 0,3 mm 2 m/s 759 mmHg 80%
    23:00 +6°C° 0,3 mm 2 m/s 759 mmHg 82%

    24 Mai, Jeudi

    Heure Température Précipitation Vent Pression Humidité
    00:00 +6°C° 0,4 mm 2 m/s 759 mmHg 83%
    01:00 +5°C° 0,4 mm 3 m/s 758 mmHg 84%
    02:00 +5°C° 0,4 mm 3 m/s 758 mmHg 85%
    03:00 +5°C° 0,2 mm 4 m/s 758 mmHg 84%
    04:00 +5°C° 0,2 mm 4 m/s 758 mmHg 84%
    05:00 +5°C° 0,2 mm 5 m/s 757 mmHg 84%
    06:00 +5°C° 0,1 mm 5 m/s 757 mmHg 80%
    07:00 +5°C° 0,1 mm 6 m/s 758 mmHg 77%
    08:00 +5°C° 0,1 mm 6 m/s 758 mmHg 74%
    09:00 +5°C° 0 mm 6 m/s 758 mmHg 71%
    10:00 +7°C° 0 mm 6 m/s 758 mmHg 67%
    11:00 +6°C° 0 mm 7 m/s 759 mmHg 64%
    12:00 +8°C° 0 mm 7 m/s 759 mmHg 61%
    13:00 +8°C° 0 mm 7 m/s 760 mmHg 59%
    14:00 +8°C° 0 mm 7 m/s 760 mmHg 56%
    15:00 +7°C° 0,3 mm 6 m/s 761 mmHg 61%
    16:00 +7°C° 0,3 mm 6 m/s 761 mmHg 66%
    17:00 +5°C° 0,3 mm 6 m/s 762 mmHg 71%
    18:00 +4°C° 0,6 mm 7 m/s 762 mmHg 72%
    19:00 +4°C° 0,6 mm 7 m/s 763 mmHg 73%
    20:00 +2°C° 0,6 mm 8 m/s 763 mmHg 74%
    21:00 +3°C° 0 mm 7 m/s 764 mmHg 75%
    22:00 +2°C° 0 mm 6 m/s 765 mmHg 75%
    23:00 +2°C° 0 mm 6 m/s 765 mmHg 76%

    25 Mai, Vendredi

    Heure Température Précipitation Vent Pression Humidité
    00:00 +2°C° 0,1 mm 6 m/s 766 mmHg 79%
    01:00 +2°C° 0,1 mm 6 m/s 766 mmHg 81%
    02:00 +2°C° 0,1 mm 6 m/s 766 mmHg 83%
    03:00 +3°C° 0,8 mm 7 m/s 765 mmHg 85%
    04:00 +2°C° 0,8 mm 8 m/s 765 mmHg 86%
    05:00 +2°C° 0,8 mm 9 m/s 764 mmHg 88%
    06:00 +2°C° 2,2 mm 10 m/s 764 mmHg 89%
    07:00 +3°C° 2,2 mm 11 m/s 763 mmHg 91%
    08:00 +3°C° 2,2 mm 11 m/s 763 mmHg 93%
    09:00 +3°C° 2 mm 11 m/s 763 mmHg 93%
    10:00 +5°C° 2 mm 10 m/s 763 mmHg 94%
    11:00 +5°C° 2 mm 10 m/s 764 mmHg 95%
    12:00 +5°C° 1,8 mm 10 m/s 764 mmHg 95%
    13:00 +5°C° 1,8 mm 10 m/s 764 mmHg 95%
    14:00 +5°C° 1,8 mm 10 m/s 765 mmHg 95%
    15:00 +5°C° 0,6 mm 9 m/s 765 mmHg 94%
    16:00 +5°C° 0,6 mm 9 m/s 765 mmHg 94%
    17:00 +5°C° 0,6 mm 8 m/s 765 mmHg 93%
    18:00 +5°C° 0,2 mm 8 m/s 765 mmHg 93%
    19:00 +5°C° 0,2 mm 8 m/s 765 mmHg 93%
    20:00 +5°C° 0,2 mm 8 m/s 765 mmHg 93%
    21:00 +5°C° 0,9 mm 8 m/s 764 mmHg 93%
    22:00 +5°C° 0,9 mm 9 m/s 764 mmHg 94%
    23:00 +5°C° 0,9 mm 9 m/s 764 mmHg 94%

    26 Mai, Samedi

    Heure Température Précipitation Vent Pression Humidité
    00:00 +5°C° 0,6 mm 10 m/s 763 mmHg 94%
    01:00 +4°C° 0,6 mm 11 m/s 762 mmHg 93%
    02:00 +4°C° 0,6 mm 11 m/s 762 mmHg 93%
    03:00 +4°C° 1,6 mm 11 m/s 761 mmHg 93%
    04:00 +4°C° 1,6 mm 12 m/s 760 mmHg 93%
    05:00 +4°C° 1,6 mm 12 m/s 760 mmHg 92%
    06:00 +4°C° 1,7 mm 12 m/s 759 mmHg 92%
    07:00 +4°C° 1,7 mm 12 m/s 759 mmHg 93%
    08:00 +6°C° 1,7 mm 11 m/s 758 mmHg 93%
    09:00 +6°C° 2,9 mm 11 m/s 758 mmHg 93%
    10:00 +6°C° 2,9 mm 10 m/s 757 mmHg 93%
    11:00 +6°C° 2,9 mm 10 m/s 757 mmHg 94%
    12:00 +6°C° 2,3 mm 9 m/s 757 mmHg 94%
    13:00 +7°C° 2,3 mm 8 m/s 757 mmHg 95%
    14:00 +8°C° 2,3 mm 7 m/s 757 mmHg 95%
    15:00 +8°C° 1,8 mm 6 m/s 758 mmHg 96%
    16:00 +8°C° 1,8 mm 6 m/s 758 mmHg 96%
    17:00 +8°C° 1,8 mm 5 m/s 759 mmHg 97%
    18:00 +7°C° 0,1 mm 5 m/s 760 mmHg 96%
    19:00 +7°C° 0,1 mm 5 m/s 760 mmHg 96%
    20:00 +7°C° 0,1 mm 5 m/s 761 mmHg 96%
    21:00 +7°C° 0,2 mm 4 m/s 762 mmHg 96%
    22:00 +6°C° 0,2 mm 4 m/s 762 mmHg 95%
    23:00 +7°C° 0,2 mm 3 m/s 763 mmHg 95%
    Voir plus